Location: Unspecified
(48.5670°N, 0.0000°E)
Time: 16:35:23
(UTC+00:00)

Vanguard 2 Rocket - Pass Details

Date: 30 August 2019
Orbit: 554 x 3327 km, 32.9° (Epoch: 15 October)

Event Time Altitude Azimuth Distance (km) Brightness Sun altitude
Rises 23:31:19 0° 196° (SSW) 3,671 - -32.2°
Reaches altitude 10° 23:34:53 10° 173° (S) 3,126 - -32.3°
Maximum altitude 23:39:13 16° 140° (SE) 3,208 - -32.4°
Exits shadow 23:44:47 10° 109° (ESE) 4,252 10.1 -32.5°
Drops below altitude 10° 23:44:48 10° 109° (ESE) 4,255 10.1 -32.5°
Sets 23:51:11 0° 91° (E) 5,906 11.0 -32.6°
